Tracking 30692 objects as of 16-Jun-2025
HD Live streaming from Space Station
objects crossing your sky now

STARLINK-32582

Track STARLINK-32582 now!
10-day predictions
STARLINK-32582 is classified as:


NORAD ID: 62033
Int'l Code: 2024-216B
Perigee: 489.5 km
Apogee: 490.9 km
Inclination: 43.0 °
Period: 94.3 minutes
Semi major axis: 6861 km
RCS: Unknown
Launch date: November 21, 2024
Source: United States (US)
Launch site: AIR FORCE EASTERN TEST RANGE (AFETR)
Your satellite tracking list
Your tracking list is empty




NASA's NSSDC Master Catalog

Two Line Element Set (TLE):
1 62033U 24216B   25166.51415943  .00018571  00000-0  68260-3 0  9998
2 62033  42.9998 332.1946 0001027 255.8977 104.1761 15.27583935 32933
Source of the keplerian elements: AFSPC